Погода в Барде

Россия / Пермский край     56°55′37″N   55°35′29″E
темп.,
°C
ветер,
м/с
пор.,
м/с
влажн.,
%
обл.,
%
осадки,
мм/ч
давл.,
гПа
погр.,
м
13 августа, сб
сб1323:00+15зюз310765 0.0 1017204
02:00+15з411805 0.0 1016263
05:00+15з4108438 0.0 1016264
08:00+17зсз4108021 0.0 1017380
11:00+21сз58520 0.0 10171187
14:00+23сз69430 0.0 10171804
17:00+23сз68390 0.0 10171874
20:00+17ссз37580 0.0 1019173
14 августа, вс
вс1423:00+12сз11670 0.0 102010
02:00+10сз11710 0.0 102110
05:00+10зсз11750 0.0 102110
08:00+14ссз12632 0.0 1022117
11:00+19сз23465 0.0 1022752
14:00+22сз343926 0.0 10212239
17:00+22ссз343819 0.0 10212187
20:00+17с22592 0.0 102115
15 августа, пн
пн1523:00+13юз00628 0.0 102211
02:00+14юз225698 0.0 102220
05:00+12сз11703 0.0 102311
08:00+14с12665 0.0 1024126
11:00+19с22470 0.0 1024778
14:00+22ссз34410 0.0 10231629
17:00+22с34414 0.0 10232002
20:00+18ссв23620 0.0 102344
16 августа, вт
вт1623:00+12в22720 0.0 102513
02:00+11вюв11690 0.0 102510
05:00+10ссв00710 0.0 102610
08:00+14зсз11610 0.0 102690
11:00+20зсз34480 0.0 1026668
14:00+23сз474116 0.0 10252207
17:00+24ссз57395 0.0 10242192
20:00+19с236291 0.0 102459
17 августа, ср
ср1723:00+14с117434 0.0 102511
02:00+11ссв11785 0.0 102710
05:00+10ссв11744 0.0 102710
08:00+13ссв12595 0.0 1027104
11:00+19с23406 0.0 1026716
14:00+22сз343733 0.0 10251200
17:00+24зсз46439 0.0 10231744
20:00+20зюз376385 0.0 1022171